Location: Unspecified
(0.0000°N, 0.0000°E)
Time: 08:19:26
(UTC+02:00)

Iridium 12 - Visible Passes

Search period start: 27 May 2016 00:00
Search period end: 06 June 2016 00:00
Orbit: 776 x 779 km, 86.4° (Epoch: 26 May)

Date Brightness Start Highest point End Pass type
(mag) Time Alt. Az. Time Alt. Az. Time Alt. Az.
27 May 7.6 20:13:32 10° SSW 20:18:07 32° W 20:22:42 10° NNW visible
28 May 7.0 07:06:17 10° NNE 07:11:07 39° E 07:15:58 10° SSE visible
29 May 8.3 06:34:12 10° NE 06:37:40 18° E 06:41:08 10° SE visible
31 May 6.0 07:06:01 10° N 07:11:10 65° E 07:16:21 10° S visible
01 Jun 7.5 06:33:16 10° NNE 06:37:43 29° E 06:42:11 10° SSE visible
02 Jun 8.4 06:01:59 10° ENE 06:04:17 13° E 06:06:34 10° ESE visible
03 Jun 5.5 07:06:02 10° N 07:11:14 78° W 07:16:27 10° S visible
04 Jun 6.5 06:32:48 10° NNE 06:37:47 47° E 06:42:47 10° SSE visible
05 Jun 7.9 06:00:27 10° NE 06:04:20 21° E 06:08:13 10° SE visible
